Theta_e
340 341 344 344 345 346 347 347 347 347 348 348 347 346 345 344 345 345 343 343 346 346 344 345 348 349 350 352 352 352 352 350 347 344 341 338 338 342 344 345 348 349 348 348 346 345 344 340 338 336 331 330 330 330 333 336 336 334 330 327 325 323 323 322 322 321 320 320 319 319 319 318 318 319
339 340 341 341 342 345 346 347 347 347 347 347 347 346 345 345 345 346 346 346 348 349 346 346 349 350 352 353 352 352 352 352 351 347 343 340 338 340 342 343 347 349 349 350 348 347 346 342 342 342 337 334 333 331 330 333 336 336 334 331 328 325 323 323 322 322 321 320 320 319 319 319 318 318
338 339 339 339 341 344 346 346 346 346 346 346 346 346 345 346 345 346 347 346 347 350 349 350 351 350 352 353 352 352 352 352 351 350 348 346 340 339 340 340 344 347 348 350 350 348 347 344 343 344 342 340 340 337 332 331 333 335 336 334 331 328 325 323 323 323 322 321 320 320 319 319 319 318
342 342 341 341 341 343 345 345 346 346 346 346 346 345 344 345 346 345 345 346 346 348 349 349 350 350 350 351 350 351 351 351 353 353 353 352 345 340 339 339 341 343 345 348 349 348 347 345 344 345 344 343 344 343 339 335 332 333 335 336 334 331 327 325 323 323 323 322 320 320 320 319 319 319
345 347 346 345 345 344 344 343 344 344 345 346 346 345 344 346 348 345 344 344 345 346 346 344 345 346 345 345 347 349 351 353 355 356 356 355 349 341 338 339 340 341 344 346 348 348 347 345 345 346 346 345 345 345 344 342 337 332 333 335 336 334 330 327 325 324 323 323 321 320 320 319 319 319
346 348 349 348 349 349 346 343 341 341 343 345 346 346 344 346 347 345 344 343 343 343 342 339 339 340 340 340 341 346 351 353 355 356 356 355 350 343 340 340 339 339 342 345 346 346 345 344 346 348 347 346 346 345 345 345 343 336 332 334 336 336 334 330 326 325 324 323 322 321 320 320 319 319
344 345 346 347 348 348 346 343 341 340 341 343 346 348 346 345 346 346 346 346 345 344 341 337 336 337 338 338 338 340 345 349 352 353 353 350 346 344 343 343 341 340 342 342 342 341 337 337 343 347 346 345 346 346 345 346 346 340 334 333 334 336 337 333 328 326 325 323 322 322 321 320 319 319
343 343 343 343 345 346 344 343 342 342 341 342 343 345 346 346 348 349 349 348 348 348 345 341 340 341 341 340 339 338 339 341 343 345 344 342 341 344 347 345 342 341 340 339 338 336 331 330 334 339 342 343 345 346 346 345 346 343 337 335 336 336 336 337 333 328 326 325 323 322 321 320 320 320
344 345 344 343 344 344 343 342 342 342 342 342 343 343 344 345 347 349 350 349 349 349 349 347 347 347 347 344 341 339 339 338 337 339 340 340 341 345 349 347 343 342 340 338 339 337 331 329 329 330 334 339 341 343 344 345 346 345 341 339 341 340 337 337 337 333 328 326 324 322 322 321 320 320
343 344 344 344 343 343 342 341 342 342 342 343 343 343 344 345 347 349 350 350 350 350 350 350 350 349 349 346 342 339 340 340 338 338 339 340 344 348 350 349 346 344 342 340 340 338 334 331 330 329 329 333 336 339 341 343 344 346 345 343 345 346 342 339 338 337 333 329 326 323 322 322 321 320
342 342 342 342 342 341 341 340 340 341 342 342 341 342 343 344 346 348 349 349 350 350 350 349 349 348 347 345 341 338 340 340 337 337 338 341 345 349 351 351 349 346 343 341 341 339 337 334 332 331 330 330 332 335 338 340 342 346 348 347 348 349 347 343 340 339 338 335 329 325 323 322 321 321
338 339 338 338 337 336 335 335 337 340 342 342 341 341 342 343 343 345 346 347 348 348 348 347 345 344 342 340 338 337 337 337 336 337 340 345 348 350 352 352 351 348 343 341 341 340 339 337 335 334 332 331 332 333 335 338 340 344 349 351 350 350 349 346 343 340 340 339 336 330 325 323 322 321
337 335 333 332 331 330 330 330 335 340 343 345 345 345 345 344 344 343 343 343 343 343 343 341 341 342 341 339 338 338 337 338 339 339 341 344 345 348 351 350 349 347 342 341 341 341 341 339 337 336 334 333 333 332 334 339 342 344 348 351 351 351 350 349 346 342 340 340 340 337 331 326 323 322
339 337 334 331 329 328 329 330 332 335 340 344 346 346 346 347 347 346 345 343 341 340 340 339 338 339 338 336 336 337 336 336 338 338 339 340 341 344 347 346 343 342 342 342 342 341 342 342 339 336 334 333 333 332 334 339 344 346 348 350 351 352 351 351 349 346 342 340 340 341 338 333 326 323
338 340 339 337 334 333 332 332 333 334 338 341 344 345 345 345 345 345 345 344 342 341 341 339 338 337 333 330 330 331 330 331 331 332 334 337 338 340 345 346 343 342 343 345 344 343 343 343 340 335 332 332 332 332 334 340 344 347 348 349 350 351 352 351 351 349 345 342 341 341 341 339 333 326
333 335 336 337 336 335 333 334 335 337 338 340 343 344 343 343 343 342 343 343 343 342 342 341 340 339 336 332 330 329 328 328 328 328 329 331 333 337 343 347 346 345 346 348 347 345 345 345 341 334 331 331 331 331 334 339 344 346 348 349 349 351 352 352 351 350 347 344 343 342 341 342 340 334
335 334 334 334 333 333 331 331 333 334 335 337 339 340 340 341 342 342 343 344 344 343 343 342 342 341 340 338 334 331 332 332 331 329 328 328 330 333 337 341 341 341 342 346 348 347 343 343 340 334 330 330 330 330 334 338 342 345 346 348 349 349 351 351 351 350 348 346 345 344 343 342 343 340
342 341 340 339 338 338 336 335 334 332 332 333 334 336 337 337 338 340 341 342 343 344 344 344 343 342 342 342 338 334 334 336 334 332 331 332 332 333 334 335 335 334 335 339 346 345 337 335 336 333 331 332 331 331 334 339 342 344 345 347 348 348 348 349 350 349 348 347 346 346 345 343 342 343
347 346 345 344 343 342 342 341 340 339 337 335 335 337 339 339 337 337 336 336 337 339 340 340 340 339 338 339 337 333 333 336 334 333 336 338 339 338 336 336 336 335 333 335 341 341 335 332 335 334 333 335 335 333 335 339 341 342 343 345 348 348 347 347 348 348 348 347 347 347 347 344 342 342
349 348 347 347 345 344 343 343 343 343 342 341 340 340 340 339 339 338 336 335 336 337 337 336 335 334 333 333 333 332 333 336 336 337 341 343 343 342 342 341 340 338 337 337 339 340 338 337 338 337 336 337 338 336 335 336 339 339 339 341 345 347 347 347 347 347 348 348 348 347 347 346 343 342
349 349 348 348 347 345 344 344 343 343 343 343 343 344 343 343 343 343 342 341 340 340 339 338 337 336 335 334 334 334 335 337 338 341 344 343 343 345 347 346 343 341 339 339 341 343 342 340 340 340 338 338 339 338 336 336 338 339 338 339 342 345 346 346 347 347 348 348 348 347 347 347 346 344
348 348 349 349 348 348 346 345 345 344 344 343 343 344 345 346 347 347 347 347 346 345 344 343 342 342 341 341 340 339 339 340 342 345 346 345 346 349 349 347 346 346 341 336 339 344 342 340 342 343 342 341 340 338 338 338 338 339 340 341 343 344 345 346 346 347 347 347 347 347 348 347 347 346
348 348 348 349 348 348 348 348 347 346 345 345 344 345 345 347 348 349 349 348 348 348 348 348 348 347 347 347 346 346 345 344 345 346 346 346 348 349 349 349 350 350 343 332 335 342 342 340 342 344 345 345 343 340 339 339 338 339 340 341 342 343 344 345 345 346 346 346 347 347 347 347 347 347
350 350 350 350 349 348 348 348 348 347 346 346 346 345 345 346 348 349 350 350 350 349 350 350 350 349 350 350 349 349 349 348 347 347 347 347 347 346 347 348 349 350 344 334 335 341 341 341 343 344 346 347 346 343 342 341 339 339 339 340 341 343 344 344 344 345 346 346 346 347 347 347 347 347
351 351 351 351 350 350 350 350 349 349 348 347 347 347 347 348 349 350 350 351 351 351 351 351 352 351 351 351 351 351 351 350 349 349 348 348 348 348 347 346 347 348 345 339 339 343 344 345 346 346 346 347 346 345 344 343 342 341 341 341 342 343 344 345 345 345 346 346 347 347 346 347 347 347
351 352 351 351 350 350 351 351 351 350 349 349 349 349 349 350 351 351 351 352 353 352 352 353 353 354 353 353 353 352 352 351 350 349 349 350 350 350 351 349 349 349 347 343 344 346 347 348 347 346 346 346 345 345 346 346 346 345 344 344 343 343 344 345 346 346 346 347 347 347 347 347 347 347
352 351 351 351 351 351 351 352 352 352 351 351 350 351 351 351 351 351 352 353 354 354 354 354 355 355 355 355 355 354 353 352 351 351 351 351 352 352 352 352 351 351 349 348 349 350 351 350 349 348 347 347 347 347 347 347 346 346 347 347 346 345 345 345 345 346 346 347 347 347 347 346 345 345
351 351 352 351 351 351 351 351 351 352 352 352 351 351 352 351 351 351 352 353 355 356 356 356 356 356 356 356 355 354 354 353 354 354 354 353 353 353 353 353 353 352 351 350 350 351 353 353 352 351 350 350 351 351 349 348 347 346 347 348 348 348 347 346 346 345 345 345 346 345 345 343 343 344
351 352 352 352 352 353 353 353 353 352 352 353 353 353 353 352 352 352 352 354 355 356 356 357 357 357 356 356 356 356 355 355 356 356 355 354 354 354 354 353 353 353 352 351 349 349 350 352 353 353 353 353 353 353 351 350 348 346 347 349 350 349 349 349 348 347 345 344 344 343 342 342 343 344
351 352 352 352 353 353 353 353 353 352 352 352 352 352 353 353 353 353 354 354 354 354 355 355 356 356 356 356 357 357 357 357 356 356 356 356 355 355 355 355 354 353 353 353 352 350 349 349 350 353 355 354 354 354 352 352 351 348 347 349 350 350 349 349 349 348 347 345 344 344 344 344 344 345
339 343 347 349 351 352 353 353 353 353 353 352 352 352 352 353 353 353 354 354 354 354 354 354 355 355 355 356 356 356 356 356 355 354 355 355 355 355 356 356 355 353 352 352 352 353 352 350 349 351 353 355 355 353 352 353 352 349 347 348 350 350 348 348 348 347 346 346 347 346 345 345 345 345
322 326 330 335 339 342 344 345 345 344 343 345 347 350 350 351 352 353 353 354 354 354 354 354 354 354 355 355 354 354 354 355 354 354 355 355 355 355 356 356 355 354 353 352 352 352 353 353 352 350 349 350 350 349 349 350 350 349 348 350 351 350 348 347 346 344 345 347 347 345 344 344 344 345
316 318 320 322 324 326 327 327 327 326 325 327 331 335 338 341 345 348 349 351 352 353 353 354 354 354 354 354 353 353 353 354 353 354 354 355 355 355 356 356 355 354 353 352 351 352 352 352 353 352 350 348 347 347 347 348 349 349 350 351 352 351 349 347 346 345 345 346 346 344 345 345 345 346
314 315 316 317 319 320 320 320 320 320 321 321 322 323 325 328 331 334 337 341 348 353 354 354 353 352 350 351 352 352 353 353 353 354 355 355 355 355 355 355 355 354 353 353 352 352 352 351 352 352 352 351 350 349 349 350 350 350 350 351 351 351 350 347 346 346 346 345 345 346 346 346 345 346
313 313 314 315 316 317 318 319 320 321 321 320 321 321 323 325 327 328 329 332 340 349 353 354 352 348 343 343 346 350 352 354 354 355 355 356 356 356 356 355 355 354 354 354 354 353 353 352 351 352 352 351 351 351 349 349 349 349 348 347 347 347 346 345 345 346 347 349 349 350 349 347 346 346
315 315 315 316 316 319 320 321 322 323 322 322 324 325 326 326 327 329 331 332 335 341 346 350 349 344 339 338 342 347 351 354 355 355 356 356 356 357 357 357 357 356 355 355 354 354 354 353 352 352 352 352 353 352 350 347 348 348 347 347 346 344 343 344 345 346 348 349 349 350 350 349 347 346
317 317 318 320 323 326 326 325 325 326 328 329 332 334 335 335 334 334 335 337 338 338 338 340 341 339 337 339 345 350 352 354 355 355 355 355 355 356 356 357 357 357 356 355 354 355 355 354 354 354 354 354 354 353 352 351 351 351 351 351 351 350 350 351 350 349 349 349 349 350 351 350 349 349
322 324 325 328 331 334 334 333 334 335 336 336 337 337 336 336 337 338 340 341 341 339 337 337 337 337 336 341 348 352 353 354 355 355 355 355 354 354 354 355 356 356 356 356 355 355 354 354 354 355 355 354 353 352 351 351 352 351 352 352 352 351 351 352 353 353 352 352 352 352 351 350 349 349
329 330 332 334 338 339 338 336 333 332 332 333 334 334 333 333 334 338 342 345 343 342 340 340 340 341 342 346 350 352 353 354 354 354 354 353 353 352 352 353 355 356 356 356 355 354 353 352 353 354 354 353 352 349 349 351 352 352 352 352 352 350 349 348 350 351 352 351 351 351 351 350 350 350
333 333 334 337 338 336 333 328 324 322 322 323 325 326 328 331 333 336 342 346 346 345 345 345 345 347 348 349 350 352 353 353 354 354 353 353 353 353 353 353 354 355 356 355 354 353 353 352 353 353 353 353 353 352 352 353 353 353 353 352 351 351 350 350 350 349 347 347 348 349 350 352 353 352
334 334 335 334 332 329 325 321 320 322 324 326 328 331 334 337 339 341 345 348 349 348 349 350 350 350 350 350 351 353 353 353 353 354 355 354 354 354 354 354 354 354 354 354 354 353 353 353 354 354 354 353 354 354 354 354 354 352 352 351 350 350 351 353 353 350 346 345 348 349 351 353 354 353
333 333 333 331 328 326 323 319 319 326 332 335 337 339 341 342 343 345 348 349 349 350 350 350 350 350 350 351 351 352 352 352 352 354 354 355 354 355 354 354 354 354 354 355 354 354 354 354 354 354 354 354 354 354 354 354 354 353 351 349 348 349 351 353 354 352 350 349 351 352 353 354 354 353
329 329 329 329 326 324 321 317 317 324 333 338 340 341 343 343 344 346 347 347 347 348 347 345 345 345 347 348 349 349 349 350 351 352 352 353 353 355 355 355 355 355 355 355 355 355 355 354 354 354 355 355 355 355 355 355 355 355 354 352 350 350 352 353 354 353 353 352 353 353 353 353 353 353
327 327 327 327 324 321 319 319 320 324 331 337 339 340 341 341 342 343 343 343 343 344 342 341 340 342 343 344 345 346 346 346 348 350 351 352 352 353 354 354 355 355 355 356 356 356 356 356 355 355 354 354 355 356 356 355 355 355 355 354 352 351 353 354 354 353 353 353 353 353 353 352 352 352
326 326 325 324 322 319 321 323 326 327 330 332 333 335 335 336 337 338 338 338 338 339 338 338 339 340 341 341 342 343 343 345 346 348 349 349 349 351 352 353 353 354 355 356 356 356 357 357 356 354 354 355 356 356 356 356 356 355 354 354 353 351 352 354 354 353 353 353 352 352 352 352 352 352
Wind_Speed
11 14 15 13 11 8 6 4 3 2 3 4 6 9 10 10 9 8 8 8 6 6 7 10 9 4 4 5 7 9 11 12 14 13 12 13 11 9 10 11 12 13 14 15 16 17 17 17 16 15 14 14 14 14 13 11 10 9 9 9 10 10 11 11 11 11 10 10 10 10 9 6 4 1
12 15 17 16 14 12 10 7 7 6 6 6 8 9 11 11 11 9 9 8 5 4 5 9 9 5 4 4 6 8 9 12 14 13 13 13 13 10 10 11 11 12 13 13 15 16 16 16 16 15 14 14 14 14 14 13 11 10 10 9 10 10 10 11 11 11 10 9 9 9 9 8 5 3
11 13 15 15 15 13 12 11 11 10 9 10 10 11 12 12 12 11 10 11 8 5 5 7 7 5 5 5 6 7 8 11 13 14 13 14 14 12 11 12 12 12 12 12 13 15 15 15 15 15 14 15 15 15 15 14 12 11 10 10 9 9 10 10 11 11 11 10 9 8 8 8 7 4
9 11 12 12 13 13 14 13 13 13 13 12 13 13 12 12 13 13 12 13 12 9 7 8 8 7 8 8 9 8 9 10 12 14 14 15 16 14 12 12 12 12 12 12 12 14 15 14 14 13 13 14 16 16 16 15 14 12 11 10 9 9 9 10 10 11 11 10 9 8 8 7 7 6
8 9 10 10 10 12 13 14 14 15 15 15 15 14 12 10 12 14 13 14 15 14 12 11 11 12 12 12 12 11 10 10 10 12 14 16 18 16 14 13 13 13 13 12 12 14 14 13 13 12 13 14 16 17 17 17 16 14 12 11 9 9 9 9 10 10 10 10 10 9 8 8 7 6
9 9 10 9 9 11 12 12 13 15 16 16 16 14 12 11 12 13 13 14 15 16 16 15 14 15 15 14 13 12 12 12 12 13 15 17 19 18 15 14 14 14 13 12 13 13 13 13 12 12 13 14 15 16 17 18 17 15 13 12 10 9 9 9 9 10 10 10 9 9 9 8 7 7
10 11 11 10 9 11 12 11 11 12 14 15 17 16 13 12 12 12 13 14 14 15 17 17 16 16 15 15 14 14 14 15 16 16 17 19 18 16 14 14 15 14 12 11 12 13 14 14 13 13 14 15 15 16 17 18 17 15 14 14 12 10 9 9 9 9 10 10 9 9 9 9 8 8
11 12 12 11 10 11 12 11 11 11 12 13 15 17 17 15 13 12 13 15 15 16 17 17 16 15 15 15 15 15 15 16 16 17 17 17 15 13 13 14 13 12 11 10 11 13 15 15 14 13 14 15 16 17 17 17 17 16 14 14 15 13 11 9 9 9 9 10 10 9 9 9 9 9
12 13 13 12 12 12 12 12 11 11 12 12 12 15 17 18 16 13 13 14 15 16 18 18 18 18 19 19 18 17 17 16 15 15 15 14 12 12 13 13 11 10 10 10 11 13 15 16 16 15 14 15 16 17 17 17 16 15 13 14 16 17 15 11 9 9 10 10 10 10 10 10 10 10
13 13 14 14 14 14 14 13 12 12 12 12 11 12 15 17 18 16 15 15 15 16 18 20 21 22 23 24 22 19 17 16 16 16 15 12 10 11 12 13 11 11 12 12 12 14 16 18 18 17 16 15 16 17 18 17 16 15 14 13 15 17 18 14 11 9 10 10 10 11 10 10 11 11
14 14 14 14 15 15 15 14 14 13 13 13 13 12 13 15 18 19 19 19 18 19 20 22 24 25 26 25 22 18 16 16 16 16 16 13 9 9 12 14 14 14 15 14 14 15 17 19 20 20 18 17 16 17 18 17 16 15 14 14 15 16 17 16 14 11 11 11 11 11 11 11 11 12
14 14 14 15 15 15 15 14 13 12 11 12 12 11 11 12 14 17 20 21 23 23 25 26 26 25 24 22 20 18 17 18 17 16 16 15 13 11 13 14 15 17 17 17 16 17 18 20 22 22 21 19 17 17 18 17 15 14 14 15 15 16 16 16 15 13 12 12 11 11 12 12 12 13
16 16 15 16 16 16 15 15 13 11 9 11 12 11 12 13 13 14 15 17 19 21 23 24 23 23 22 21 20 20 19 19 19 17 16 17 17 15 15 15 16 18 19 19 19 19 19 21 24 25 24 21 19 18 17 16 14 13 14 15 16 16 16 16 16 15 14 13 13 12 12 12 13 13
18 18 18 17 17 17 16 15 14 13 11 12 14 14 14 16 17 17 18 19 19 20 21 21 21 22 23 21 20 21 20 19 20 20 19 19 19 18 19 19 18 18 20 21 21 21 21 23 26 27 26 23 20 19 17 14 13 13 14 15 16 17 17 17 16 16 14 14 14 13 13 13 13 14
20 20 20 19 19 18 17 16 16 15 14 14 15 16 17 18 18 20 21 22 22 22 23 23 23 24 25 23 22 22 22 21 21 22 21 22 21 21 22 22 21 20 20 22 23 24 24 25 28 30 27 23 21 19 16 14 14 14 14 15 17 17 18 18 17 17 16 15 15 15 14 14 14 15
22 22 22 22 22 21 21 20 19 18 18 17 18 18 19 20 20 21 23 24 25 25 26 26 26 25 26 25 24 23 23 23 23 23 24 24 25 24 24 25 24 23 23 25 26 28 27 28 30 31 27 23 21 19 16 14 14 14 15 16 17 18 18 18 18 17 17 16 16 16 16 15 15 15
19 20 21 22 22 23 23 23 23 23 22 22 22 22 22 22 23 24 25 26 27 28 29 30 30 28 27 28 27 25 25 25 26 26 26 27 28 28 28 28 28 27 28 29 30 32 33 32 34 33 27 23 22 20 16 15 15 16 16 17 18 17 17 18 18 17 17 16 16 17 17 17 16 16
18 18 19 20 20 21 21 23 24 25 25 25 25 25 24 24 25 25 26 26 26 27 29 31 31 30 29 30 30 28 27 28 29 29 29 29 30 31 31 31 31 29 30 31 33 35 35 35 36 34 27 23 22 20 17 16 16 17 18 17 17 17 16 16 17 17 17 16 16 17 18 18 17 16
24 23 24 24 24 23 22 22 22 23 24 25 25 25 25 25 25 26 26 26 27 28 29 30 31 31 31 31 31 30 29 30 29 28 29 29 29 30 31 31 31 28 27 30 34 37 34 31 33 32 27 24 22 19 17 18 17 18 18 17 16 16 15 15 15 16 16 16 16 17 18 18 18 17
28 28 28 29 29 29 28 26 25 24 24 25 26 26 27 28 28 29 29 29 29 30 30 31 32 32 32 32 32 31 30 31 29 26 27 27 26 28 30 31 29 26 24 25 30 34 32 28 28 28 24 22 21 18 16 17 18 18 17 16 16 16 15 14 14 15 16 16 16 17 17 17 17 18
28 28 29 29 31 31 31 29 28 27 27 28 28 29 29 30 31 32 32 32 33 33 34 34 35 34 33 33 33 32 31 31 29 27 27 26 25 27 31 31 29 27 25 25 27 32 30 26 26 25 22 21 21 18 16 15 16 16 16 15 15 16 15 15 15 16 16 17 17 17 17 17 17 18
33 32 31 30 31 32 32 31 29 29 30 32 32 32 33 33 35 35 34 33 33 34 34 35 35 35 35 34 33 33 32 31 29 29 29 26 26 29 32 32 32 31 29 26 27 30 29 25 24 25 24 23 22 20 18 17 17 16 15 15 16 16 16 16 17 17 17 17 18 17 17 17 17 18
36 36 36 36 35 36 35 34 33 31 32 35 36 35 36 37 38 37 35 34 34 33 34 34 34 34 34 34 34 33 32 31 31 31 31 29 29 31 32 32 33 35 33 28 27 30 29 25 24 25 26 27 25 22 20 20 19 18 17 17 17 17 17 18 18 19 19 19 19 18 18 18 18 18
37 37 38 38 38 37 35 35 35 36 35 36 37 38 39 40 40 38 37 36 35 34 34 34 34 35 35 35 35 35 33 32 32 32 33 32 32 34 35 34 34 37 36 30 30 33 33 29 27 26 26 28 27 24 22 21 20 20 19 20 19 19 19 20 21 21 20 20 20 20 20 19 19 19
36 36 35 34 34 34 33 32 33 36 38 38 39 40 41 41 40 39 38 37 35 34 34 34 34 35 35 35 36 35 34 33 32 32 33 33 32 33 34 35 35 37 37 33 33 36 37 34 31 29 28 28 27 26 26 24 22 21 21 21 22 21 22 23 23 22 22 22 21 21 21 21 20 20
36 35 33 31 30 30 30 29 29 32 36 38 39 40 40 39 39 39 38 37 34 32 32 32 33 34 34 35 35 34 34 32 32 32 32 32 32 32 33 34 35 37 37 34 34 37 38 37 33 30 29 29 27 27 27 27 26 24 23 23 23 23 23 24 24 24 24 23 23 23 22 22 23 23
36 35 34 33 31 29 28 27 28 30 33 36 38 39 39 39 39 38 37 35 33 32 32 32 33 33 32 33 34 33 33 32 31 31 32 32 33 33 33 34 35 37 36 34 33 35 37 37 35 32 30 30 29 29 29 29 29 28 27 26 25 25 26 26 27 27 27 26 26 25 24 25 25 25
34 34 33 33 32 30 29 29 29 30 31 33 36 38 39 39 38 36 35 33 32 33 34 34 34 33 32 33 33 32 31 31 31 32 32 32 32 32 32 33 33 34 35 35 34 34 35 37 36 34 32 31 31 32 32 32 32 31 31 31 29 29 29 29 29 29 29 29 29 28 28 28 27 26
30 31 31 31 31 30 30 31 31 32 32 31 32 34 36 37 36 35 33 32 32 33 35 36 37 36 34 34 34 33 33 32 33 33 34 34 33 33 33 33 32 32 33 33 34 35 36 37 37 35 34 34 35 35 35 35 35 34 34 34 33 32 32 31 31 31 30 30 30 30 30 29 28 27
25 27 28 29 30 30 30 31 31 31 31 31 31 32 33 35 35 34 34 34 35 35 35 37 38 38 37 35 36 36 36 36 36 36 36 37 37 36 35 35 35 34 33 33 33 34 36 38 38 37 36 36 37 38 38 38 38 38 37 36 36 35 34 33 32 31 31 31 31 30 30 29 29 29
23 24 26 27 28 29 30 30 30 29 30 30 30 30 31 32 33 34 35 37 38 39 39 39 40 39 39 38 38 38 40 40 40 39 39 40 40 39 39 40 40 38 35 33 33 33 34 36 38 39 39 39 40 41 40 41 42 42 40 37 37 36 35 34 33 32 31 31 31 31 32 31 31 32
23 24 26 26 26 27 27 28 29 29 30 30 30 30 31 31 31 31 32 33 35 37 38 40 41 41 41 41 41 42 43 44 44 43 43 43 43 41 41 42 43 41 38 36 34 33 33 34 35 37 39 40 41 41 41 42 42 41 40 38 37 36 34 33 33 31 30 31 33 33 33 33 33 33
24 24 25 25 25 25 25 26 27 28 28 28 29 30 31 32 32 31 30 30 30 30 29 31 34 36 37 39 38 39 41 42 42 42 42 43 43 43 43 44 44 42 39 37 34 33 33 32 32 32 34 35 36 36 37 39 39 38 37 37 37 36 34 32 32 31 31 32 33 34 34 34 34 33
25 25 25 25 25 25 26 26 27 27 27 27 27 28 28 30 31 32 32 31 29 27 24 24 26 27 29 31 31 32 34 34 34 34 35 36 37 38 40 42 42 40 38 36 34 32 31 30 28 28 28 29 31 31 32 35 36 35 34 35 37 37 35 33 31 32 32 33 33 34 36 36 34 33
25 25 25 25 25 25 26 28 28 28 28 28 29 28 27 27 28 29 30 31 30 28 25 24 25 26 27 28 30 32 33 33 32 31 31 31 31 33 35 38 38 37 36 37 35 33 31 28 26 25 26 27 30 31 31 31 32 31 29 29 31 33 33 32 31 32 33 34 34 36 38 38 37 35
26 25 25 25 25 25 26 27 28 28 29 30 30 29 28 27 26 26 27 27 28 29 29 29 29 29 29 30 31 33 34 34 35 34 33 32 32 32 34 36 36 36 37 38 34 30 29 28 27 27 28 29 31 34 33 29 27 28 27 26 26 28 30 30 30 32 34 34 35 37 39 40 39 37
26 25 24 24 24 24 25 26 27 28 28 28 28 27 26 26 25 24 23 24 25 27 29 31 32 32 31 31 32 32 33 34 35 36 36 35 35 35 36 37 37 37 37 35 32 30 30 31 29 29 29 29 32 37 38 33 30 31 32 31 30 29 30 31 32 33 34 34 35 37 38 39 39 37
25 24 23 23 24 24 24 24 25 25 25 25 25 25 25 25 24 22 21 21 23 24 26 29 31 32 32 31 31 31 33 35 36 36 36 36 36 36 37 37 37 37 36 35 35 34 32 30 27 26 27 28 30 33 32 29 28 28 28 29 31 30 28 30 33 35 35 35 36 37 36 37 37 36
22 22 23 24 24 23 23 22 23 23 24 24 24 25 26 25 24 23 21 21 21 22 24 26 28 29 31 31 31 31 34 35 36 35 35 35 36 36 37 37 38 38 39 40 40 37 34 31 29 28 27 28 29 27 26 27 28 28 27 27 28 27 25 25 28 31 33 34 35 36 38 39 39 37
22 24 24 23 23 23 23 24 25 25 25 26 26 26 27 27 26 25 23 21 21 22 24 25 26 27 29 30 30 31 33 33 33 33 34 34 35 36 37 38 38 39 41 42 41 39 37 35 33 31 29 29 28 27 28 32 34 33 31 27 25 25 26 25 25 27 28 28 30 34 38 41 40 38
22 23 23 22 23 25 26 27 26 25 25 25 25 25 26 26 25 25 24 23 23 23 25 26 27 27 28 28 29 31 32 31 30 32 33 34 35 37 38 38 37 38 40 41 41 40 38 36 34 32 31 31 30 31 34 37 37 35 31 26 23 25 26 27 27 27 26 27 30 33 36 39 40 39
23 24 25 26 27 29 29 29 28 25 24 23 22 22 22 22 22 22 21 20 19 20 23 24 25 25 26 26 26 27 28 28 29 30 31 32 33 34 35 36 37 38 39 40 40 39 39 38 36 34 34 33 33 33 36 38 38 36 32 28 26 27 27 27 27 27 26 28 32 34 35 37 38 40
28 29 29 30 31 32 33 33 31 28 26 25 24 23 23 23 23 22 21 20 19 20 23 26 27 27 26 25 24 24 26 27 29 29 29 30 32 32 33 34 35 35 36 38 39 38 38 38 38 38 38 37 37 37 38 39 39 39 37 33 31 30 30 29 28 28 28 30 33 35 36 37 38 40
30 31 32 34 35 36 36 35 32 30 30 30 29 29 29 29 29 29 29 29 28 28 30 31 30 29 27 27 27 27 26 26 27 27 27 28 29 31 33 36 37 36 35 35 36 36 37 38 40 41 40 39 38 38 39 38 38 39 38 36 34 33 33 32 30 29 29 31 33 35 36 37 39 40
32 33 35 36 37 38 37 34 33 33 34 35 36 36 36 36 35 36 36 36 35 34 34 32 31 30 30 30 30 30 27 25 25 26 27 28 29 31 32 33 35 35 35 35 36 37 37 38 41 42 41 39 38 38 39 39 38 38 37 36 35 34 34 34 32 31 31 31 32 32 34 35 38 39
Wind_Direction
218 213 211 210 217 232 244 244 236 238 256 275 282 281 280 281 280 265 247 249 251 249 251 246 244 264 319 325 338 345 347 346 346 349 350 353 356 353 355 6 9 10 11 9 9 11 11 15 20 24 25 25 22 19 17 18 18 16 13 7 3 3 1 359 358 359 1 3 6 8 11 16 24 63
227 220 219 223 226 235 245 243 240 244 245 254 269 275 276 275 276 270 256 255 247 226 241 240 234 242 263 282 311 325 334 337 335 337 340 343 345 343 346 354 357 358 2 2 1 3 5 8 11 15 20 23 21 17 16 15 16 15 12 9 4 0 358 357 355 354 353 356 2 5 7 10 11 18
237 234 231 230 227 231 243 246 244 248 249 253 260 268 273 271 271 270 264 265 258 229 226 228 226 241 251 265 296 312 324 327 325 325 329 335 338 337 339 345 347 346 350 353 353 354 358 1 3 6 12 17 16 13 12 12 13 13 11 9 5 360 356 354 353 352 349 349 353 359 2 4 6 6
240 243 243 238 231 231 240 247 249 250 251 255 259 266 271 268 267 268 266 267 261 248 249 249 243 256 266 276 289 296 304 311 314 314 317 325 329 329 332 337 339 338 340 345 347 348 352 356 358 359 4 8 9 8 8 8 9 11 11 8 3 359 355 351 349 349 348 346 344 349 355 357 359 360
240 240 239 240 243 245 245 248 252 253 252 254 260 264 264 259 263 269 272 273 265 255 260 269 265 268 276 282 285 285 288 293 297 300 306 315 320 321 326 331 333 334 336 341 345 346 348 350 352 354 356 360 2 2 2 2 3 5 9 9 5 359 353 350 347 345 346 345 341 340 344 348 352 352
243 242 240 238 244 253 257 254 252 254 254 253 256 261 259 254 260 272 283 290 282 266 262 269 271 272 279 284 284 280 279 280 283 290 299 307 310 312 318 325 327 329 333 339 343 344 345 347 348 347 349 353 356 356 356 357 358 0 4 8 8 1 354 349 346 344 343 343 341 337 335 338 343 345
246 251 254 253 249 253 258 259 256 256 256 251 250 253 256 254 255 266 277 287 293 284 272 268 270 271 276 282 282 278 277 280 284 289 294 299 302 308 315 321 324 326 329 336 341 342 342 343 343 342 343 346 348 350 351 352 353 356 1 6 8 5 357 350 346 343 341 340 339 336 331 330 334 338
248 254 260 262 262 259 259 260 261 260 259 253 248 249 251 252 254 264 274 278 283 286 281 277 277 281 285 289 288 287 285 283 284 287 290 294 301 309 315 320 325 325 325 333 339 339 340 341 339 337 338 340 340 342 344 346 348 350 354 2 8 7 0 352 347 344 341 339 337 334 330 327 327 330
249 253 259 263 263 263 262 262 264 266 266 264 258 253 251 251 255 262 270 273 274 280 284 286 289 291 293 296 297 298 297 291 287 287 290 297 307 314 315 317 323 324 322 330 336 336 337 338 337 335 334 334 334 334 336 338 340 343 345 351 0 5 3 356 349 346 343 340 336 332 329 326 323 323
252 253 258 262 263 263 263 264 263 265 269 270 268 262 255 253 256 258 263 268 271 276 280 283 286 288 291 294 296 297 298 296 295 296 298 303 309 311 310 309 311 316 318 324 330 332 333 335 335 333 331 329 329 328 329 330 332 334 337 339 345 354 359 358 352 348 345 341 337 333 328 324 321 319
255 256 257 258 261 263 265 267 267 267 269 271 271 270 264 258 256 256 259 264 268 272 274 277 280 284 287 290 292 295 297 296 300 305 307 303 297 297 300 299 299 304 310 317 322 326 327 329 330 329 328 327 327 324 324 324 325 326 329 332 335 341 350 354 353 350 348 344 339 335 330 325 321 318
259 260 260 259 260 263 265 267 270 273 277 280 282 284 282 276 267 262 261 262 264 268 272 275 280 283 287 291 294 298 299 299 303 310 305 295 289 289 292 291 291 296 304 309 312 316 320 323 325 324 323 324 325 324 323 323 321 319 320 324 328 331 338 346 348 348 349 348 344 339 334 328 322 318
259 261 261 262 262 265 268 267 266 266 273 282 288 294 297 296 293 288 281 276 274 274 275 278 281 284 287 291 295 297 300 302 305 308 302 294 293 291 288 286 286 291 299 304 305 309 314 316 318 320 319 320 321 321 322 322 318 314 312 315 320 323 328 334 340 342 344 347 346 343 338 332 325 320
257 260 262 264 264 264 266 268 267 264 264 270 278 285 289 291 291 291 292 293 293 291 289 290 290 290 290 292 295 297 300 302 303 303 302 299 299 295 289 289 291 295 298 301 303 306 308 309 312 315 315 316 316 317 319 319 313 308 306 308 312 314 318 323 329 333 336 342 345 343 340 336 329 322
263 264 266 267 268 268 268 270 271 272 271 271 273 278 283 285 285 285 286 290 294 294 295 297 297 295 294 296 298 299 301 303 304 304 303 301 299 297 294 294 297 300 301 300 300 301 302 303 306 309 312 312 311 312 312 310 307 305 305 305 307 308 310 314 319 324 328 334 339 340 339 336 331 325
269 270 271 273 273 274 275 275 276 277 276 275 275 276 279 282 284 284 284 285 288 290 292 294 295 295 295 298 300 301 303 305 306 304 302 300 298 296 293 292 294 298 299 298 297 297 298 298 301 304 307 308 308 306 302 299 300 301 301 301 302 304 304 306 311 317 321 326 331 335 335 334 331 327
273 274 276 277 278 279 280 279 278 278 278 278 277 277 277 277 278 279 281 282 283 284 286 288 290 292 294 296 298 301 304 304 302 300 299 299 299 297 293 291 291 293 294 293 293 294 295 295 297 301 303 304 304 300 291 287 292 295 296 296 298 300 301 301 305 311 316 320 325 331 333 332 329 326
273 274 276 278 281 283 283 282 281 280 279 279 279 279 279 278 276 275 276 277 279 280 281 283 285 288 289 290 293 297 300 299 299 298 297 297 298 297 294 293 292 291 291 290 289 289 292 296 298 300 303 304 303 297 286 281 286 292 293 293 295 299 300 300 302 306 311 315 319 326 331 331 329 325
270 271 271 273 275 278 280 281 282 282 281 280 279 278 278 279 279 277 276 276 277 278 278 280 282 284 286 287 289 293 295 296 297 297 295 294 295 293 292 291 290 291 292 291 288 287 292 297 298 300 306 308 305 299 287 281 283 289 292 289 289 294 298 300 300 301 305 309 314 321 326 329 328 325
269 269 269 269 270 271 273 275 278 280 281 280 279 279 279 281 282 282 283 282 281 281 281 281 282 284 285 286 287 289 291 293 295 293 289 289 290 289 288 288 288 290 292 291 289 289 293 298 298 301 308 308 305 301 292 284 284 287 289 286 285 288 292 295 296 296 298 302 308 315 321 324 324 324
270 271 270 271 271 270 269 269 271 274 276 276 277 278 280 282 282 283 285 285 285 285 284 285 286 286 287 287 287 288 288 290 292 289 285 286 287 286 286 286 287 289 292 293 291 290 294 300 301 302 306 304 303 303 298 292 288 286 286 285 284 284 287 289 291 291 293 297 301 308 315 318 319 320
270 271 271 271 272 271 270 268 267 268 270 272 273 274 277 279 280 282 285 285 285 285 285 286 287 287 288 289 289 289 289 290 290 286 284 285 285 283 282 283 285 287 290 296 294 290 295 304 304 303 305 304 303 303 301 298 293 287 286 288 286 285 285 286 287 288 291 294 296 301 307 311 313 315
269 271 271 271 271 272 271 269 266 266 266 267 270 272 273 276 278 281 284 285 284 284 284 285 286 286 287 288 289 289 289 289 287 284 283 282 280 278 278 280 283 284 288 298 299 293 296 303 303 302 303 302 302 303 301 299 295 287 282 284 285 284 283 284 285 286 289 291 293 295 299 303 306 308
269 270 270 270 271 272 271 269 266 265 264 264 266 268 269 271 275 280 282 283 283 282 282 282 283 284 285 286 287 287 287 285 283 281 280 279 277 276 276 277 280 280 284 293 297 293 296 299 300 301 301 298 298 300 299 297 294 287 281 279 280 282 282 283 284 285 286 288 290 291 294 297 299 301
268 270 272 272 272 273 274 272 269 266 264 263 263 264 266 269 274 279 280 281 281 280 279 279 280 281 282 283 283 283 282 280 278 277 277 277 277 276 275 277 279 280 281 286 290 291 293 295 296 298 297 294 293 295 295 294 292 289 284 280 281 282 282 283 282 282 283 284 286 289 293 294 293 294
266 269 273 276 277 276 275 275 273 271 268 265 264 266 268 270 274 277 279 278 276 273 273 275 277 278 279 279 279 279 278 277 277 278 279 280 281 280 278 277 277 277 278 282 285 287 289 290 290 291 290 288 288 290 289 290 291 290 286 284 285 286 285 284 281 280 281 282 284 288 289 288 288 290
266 268 271 273 275 274 271 270 269 269 267 266 266 267 269 271 273 275 276 275 273 271 269 270 271 274 275 275 276 276 277 279 282 284 285 285 285 283 281 279 277 276 275 277 278 280 282 283 284 284 282 282 282 283 284 287 290 290 289 288 287 286 285 284 283 282 281 281 283 285 284 284 286 288
271 271 272 272 272 272 270 267 265 265 265 265 265 266 268 270 271 272 272 273 273 273 271 269 269 270 273 275 277 279 281 283 286 287 287 287 286 285 284 284 282 279 276 273 271 272 273 275 277 278 277 277 277 278 281 286 289 291 291 290 288 286 286 286 286 285 283 281 281 282 282 284 286 287
273 274 274 274 274 274 273 270 268 267 267 267 266 265 265 265 265 266 267 270 272 274 274 273 271 270 271 274 277 280 282 282 283 284 285 286 286 286 286 286 285 284 282 278 273 270 268 269 271 273 273 274 274 275 279 283 286 289 290 289 289 289 288 287 286 286 285 282 281 281 283 286 286 284
281 279 277 275 274 275 275 275 274 273 272 270 269 268 267 267 267 267 268 268 270 272 275 276 275 274 274 275 277 278 278 278 279 281 282 283 284 285 286 287 287 285 283 281 279 275 271 268 269 269 271 272 273 275 278 281 284 287 288 287 288 290 290 289 289 288 287 285 284 284 285 285 283 280
288 286 284 281 279 279 279 281 282 282 281 278 276 274 273 272 272 271 271 270 270 270 272 274 275 276 276 277 279 280 280 280 281 281 281 281 282 283 284 286 286 285 283 281 279 278 276 274 271 269 268 270 272 275 279 281 283 285 287 286 286 288 289 291 290 288 288 288 286 285 283 281 280 280
289 287 287 287 287 287 286 286 286 287 288 287 286 284 283 280 277 276 275 275 274 272 272 273 274 275 276 278 280 281 280 280 280 281 280 280 280 281 282 282 283 285 285 283 280 279 280 280 278 274 272 271 273 277 280 281 282 283 284 284 285 286 287 287 286 286 288 287 285 283 283 281 281 280
292 290 289 290 291 291 291 291 291 292 294 294 291 289 287 286 284 282 283 284 283 280 278 278 277 277 277 279 280 280 278 278 279 280 280 279 279 280 279 279 281 284 285 284 284 286 287 286 283 280 278 276 277 278 279 279 279 280 282 282 283 283 283 284 283 283 283 282 282 283 283 282 281 281
293 293 294 295 295 295 295 295 296 297 298 297 294 292 290 288 287 286 287 289 289 286 284 283 283 282 282 283 283 281 280 281 282 283 283 283 282 280 278 279 280 282 282 283 287 291 293 291 287 282 280 278 277 276 275 275 276 278 280 281 282 283 285 285 283 281 280 279 280 282 282 281 281 281
288 290 293 296 297 297 296 296 298 299 298 297 296 297 296 294 292 291 290 291 290 287 284 282 280 281 283 284 283 283 284 285 288 289 289 288 286 283 282 281 281 281 282 284 287 291 293 292 286 279 275 274 275 274 271 269 272 275 277 279 281 284 286 286 285 283 282 281 282 282 281 282 283 284
284 286 290 293 296 297 296 296 297 298 298 299 301 303 304 304 302 300 296 295 293 288 284 282 281 281 283 283 282 284 285 287 288 290 290 289 288 286 285 284 284 284 284 283 285 288 289 287 283 277 274 273 274 275 275 274 274 275 276 277 280 283 284 285 285 284 284 285 286 285 284 286 289 292
282 284 288 291 295 296 295 295 296 298 300 303 307 310 312 312 311 309 305 302 297 291 287 285 284 284 283 282 283 286 288 288 288 289 290 290 290 288 285 284 283 283 282 281 282 283 283 282 281 279 278 277 276 278 282 284 283 280 279 280 282 285 288 288 287 286 286 287 287 286 287 290 293 296
282 285 290 294 297 297 295 296 298 300 300 303 306 309 312 313 313 312 309 306 302 297 292 287 284 283 282 281 284 287 289 288 288 288 288 289 288 285 283 280 278 277 276 277 277 276 275 276 275 274 273 269 267 271 280 286 286 284 283 282 282 285 287 286 285 285 287 287 288 289 290 291 292 294
285 289 293 294 296 297 297 298 300 301 300 301 302 305 307 309 310 310 310 308 306 302 296 289 285 283 282 281 283 285 286 286 286 285 284 283 282 281 279 277 276 275 275 276 276 276 275 275 272 269 267 264 264 271 283 288 286 284 281 278 279 280 280 281 283 285 286 287 288 288 288 287 289 290
288 289 291 292 293 295 297 298 300 300 300 299 299 301 303 305 307 308 310 309 306 303 298 294 290 287 285 286 288 287 284 283 283 282 281 280 279 279 279 279 280 280 278 278 279 278 275 273 272 272 273 273 275 280 282 280 277 277 276 276 278 279 279 280 281 280 279 281 283 283 282 283 285 286
287 285 286 289 292 295 299 302 303 303 301 300 300 301 303 304 306 308 310 309 305 302 302 301 299 295 292 292 292 289 286 284 284 285 287 286 284 283 282 281 281 280 279 278 278 275 274 275 278 278 278 278 278 276 272 271 272 277 281 282 281 281 281 281 278 273 273 277 278 277 276 278 282 283
289 287 287 291 295 299 302 303 302 300 297 295 294 294 294 295 296 296 299 301 301 301 305 307 306 303 299 296 295 294 293 290 287 289 292 292 289 287 285 282 279 277 277 277 277 277 278 280 281 279 277 276 275 271 270 271 275 278 281 282 281 281 282 281 278 277 277 277 274 271 271 273 276 277
293 292 293 295 297 299 300 299 296 292 288 286 285 284 284 285 285 285 290 295 295 293 296 301 303 303 301 297 296 298 299 296 294 293 293 290 286 285 287 287 283 280 279 279 280 281 281 280 278 276 275 274 272 271 272 274 277 278 279 280 281 283 283 281 279 278 277 274 270 269 269 270 270 272
294 294 294 294 295 296 296 294 290 284 279 278 279 279 280 281 280 281 287 292 292 290 291 297 300 299 296 294 294 295 296 297 298 297 294 291 289 289 290 290 289 285 281 279 279 279 278 277 274 272 270 270 270 269 270 272 275 278 280 280 281 282 283 282 280 278 275 272 270 269 270 271 273 275
292 291 291 291 292 292 291 289 284 280 278 278 279 280 281 282 282 282 285 288 289 288 289 292 293 291 290 293 295 294 292 291 291 289 289 291 291 290 289 291 292 289 285 282 280 279 278 276 274 271 269 269 269 268 268 270 272 274 276 278 278 280 283 283 282 279 277 277 276 274 273 274 276 278